QPF
0.01 0.02 0.02 0.02 0.02 0.01 0.01 0.01 0.01 0.01 0.00 0.00 0.00 0.00 0.00 0.00 0.00 0.00 0.00 0.00 0.00 0.00 0.00 0.00 0.00 0.00 0.00 0.00 0.00 0.00 0.00 0.00 0.00 0.00 0.00 0.00 0.00 0.00 0.00 0.00 0.00 0.00 0.00
0.01 0.01 0.02 0.02 0.02 0.02 0.02 0.02 0.02 0.01 0.01 0.00 0.00 0.00 0.00 0.00 0.00 0.00 0.00 0.00 0.00 0.00 0.00 0.00 0.00 0.00 0.00 0.00 0.00 0.00 0.00 0.00 0.00 0.00 0.00 0.00 0.00 0.00 0.00 0.00 0.00 0.00 0.00
0.00 0.01 0.02 0.03 0.03 0.04 0.04 0.02 0.02 0.02 0.01 0.00 0.00 0.00 0.00 0.00 0.00 0.00 0.00 0.00 0.00 0.00 0.00 0.00 0.00 0.00 0.00 0.00 0.00 0.00 0.00 0.00 0.00 0.00 0.00 0.00 0.00 0.00 0.00 0.00 0.00 0.00 0.00
0.01 0.02 0.04 0.04 0.04 0.03 0.03 0.03 0.03 0.02 0.02 0.01 0.01 0.01 0.00 0.00 0.00 0.00 0.00 0.00 0.00 0.00 0.00 0.00 0.00 0.00 0.00 0.00 0.00 0.00 0.00 0.01 0.01 0.00 0.00 0.00 0.00 0.00 0.00 0.00 0.00 0.00 0.00
0.05 0.08 0.07 0.06 0.06 0.05 0.05 0.05 0.04 0.03 0.03 0.02 0.02 0.01 0.01 0.01 0.01 0.00 0.00 0.00 0.00 0.00 0.00 0.00 0.00 0.00 0.00 0.01 0.00 0.01 0.01 0.01 0.01 0.00 0.00 0.00 0.00 0.01 0.00 0.00 0.00 0.00 0.00
0.08 0.11 0.12 0.12 0.11 0.10 0.09 0.08 0.07 0.05 0.04 0.04 0.03 0.02 0.01 0.01 0.01 0.01 0.01 0.00 0.01 0.01 0.02 0.02 0.01 0.01 0.01 0.01 0.00 0.01 0.01 0.01 0.01 0.00 0.00 0.01 0.01 0.01 0.01 0.00 0.00 0.00 0.00
0.07 0.07 0.09 0.12 0.15 0.15 0.11 0.10 0.10 0.09 0.07 0.06 0.06 0.05 0.03 0.03 0.02 0.02 0.02 0.01 0.00 0.01 0.02 0.03 0.02 0.01 0.03 0.04 0.03 0.02 0.01 0.01 0.01 0.00 0.00 0.00 0.01 0.01 0.02 0.01 0.01 0.01 0.01
0.08 0.08 0.08 0.11 0.15 0.14 0.10 0.09 0.09 0.09 0.09 0.08 0.08 0.07 0.06 0.04 0.04 0.04 0.04 0.02 0.01 0.01 0.01 0.02 0.03 0.02 0.03 0.05 0.06 0.05 0.04 0.02 0.01 0.01 0.00 0.00 0.00 0.01 0.01 0.01 0.01 0.01 0.01
0.10 0.11 0.10 0.13 0.12 0.09 0.07 0.07 0.06 0.06 0.06 0.05 0.05 0.05 0.04 0.04 0.04 0.04 0.04 0.02 0.01 0.02 0.02 0.03 0.04 0.04 0.04 0.05 0.06 0.06 0.06 0.04 0.02 0.02 0.01 0.01 0.00 0.01 0.01 0.01 0.01 0.01 0.00
0.09 0.11 0.09 0.09 0.11 0.09 0.07 0.06 0.05 0.05 0.05 0.06 0.06 0.05 0.05 0.05 0.05 0.05 0.04 0.02 0.02 0.02 0.03 0.04 0.04 0.04 0.04 0.04 0.05 0.06 0.06 0.04 0.06 0.06 0.05 0.02 0.01 0.01 0.01 0.01 0.01 0.01 0.00
0.06 0.06 0.06 0.06 0.06 0.05 0.05 0.05 0.04 0.04 0.04 0.04 0.04 0.04 0.04 0.05 0.05 0.04 0.03 0.02 0.01 0.02 0.03 0.03 0.04 0.04 0.03 0.02 0.02 0.03 0.04 0.04 0.07 0.08 0.08 0.08 0.06 0.04 0.03 0.02 0.01 0.01 0.00
0.04 0.04 0.03 0.03 0.02 0.02 0.03 0.03 0.02 0.03 0.03 0.03 0.03 0.02 0.02 0.03 0.02 0.02 0.01 0.00 0.00 0.01 0.01 0.01 0.02 0.02 0.01 0.01 0.01 0.01 0.01 0.02 0.02 0.03 0.04 0.05 0.05 0.05 0.05 0.05 0.05 0.04 0.03
0.03 0.02 0.02 0.01 0.01 0.00 0.00 0.01 0.01 0.01 0.01 0.01 0.01 0.01 0.01 0.01 0.01 0.00 0.00 0.00 0.00 0.00 0.00 0.00 0.00 0.00 0.00 0.00 0.01 0.01 0.01 0.01 0.01 0.02 0.02 0.02 0.02 0.03 0.04 0.07 0.11 0.12 0.10
0.01 0.01 0.01 0.01 0.01 0.01 0.01 0.01 0.01 0.01 0.01 0.01 0.00 0.00 0.00 0.00 0.00 0.00 0.00 0.00 0.00 0.00 0.00 0.00 0.00 0.00 0.00 0.00 0.00 0.00 0.01 0.01 0.01 0.02 0.02 0.02 0.03 0.04 0.05 0.07 0.10 0.13 0.14
0.01 0.00 0.01 0.01 0.00 0.00 0.00 0.00 0.00 0.00 0.00 0.00 0.00 0.00 0.00 0.00 0.00 0.00 0.00 0.00 0.00 0.00 0.00 0.00 0.00 0.00 0.00 0.00 0.01 0.01 0.02 0.02 0.03 0.03 0.04 0.05 0.06 0.07 0.07 0.09 0.11 0.14 0.16
0.01 0.01 0.01 0.00 0.00 0.00 0.00 0.00 0.00 0.00 0.00 0.00 0.00 0.00 0.00 0.00 0.00 0.00 0.00 0.00 0.00 0.00 0.00 0.00 0.00 0.00 0.01 0.01 0.02 0.02 0.03 0.05 0.06 0.07 0.08 0.09 0.10 0.11 0.11 0.13 0.15 0.16 0.16
0.00 0.00 0.00 0.00 0.00 0.00 0.00 0.00 0.00 0.00 0.00 0.00 0.00 0.00 0.00 0.00 0.00 0.00 0.00 0.00 0.00 0.00 0.00 0.01 0.01 0.02 0.03 0.03 0.03 0.04 0.04 0.06 0.08 0.10 0.11 0.13 0.14 0.15 0.16 0.17 0.17 0.18 0.17
0.00 0.00 0.00 0.00 0.00 0.00 0.00 0.00 0.00 0.00 0.00 0.00 0.00 0.00 0.00 0.00 0.00 0.00 0.00 0.00 0.00 0.01 0.02 0.03 0.04 0.04 0.04 0.05 0.05 0.06 0.07 0.07 0.09 0.10 0.12 0.13 0.16 0.18 0.20 0.20 0.20 0.21 0.21
0.00 0.00 0.00 0.00 0.00 0.00 0.00 0.00 0.00 0.00 0.00 0.00 0.00 0.00 0.00 0.00 0.00 0.00 0.00 0.01 0.02 0.02 0.03 0.03 0.03 0.04 0.05 0.06 0.06 0.07 0.08 0.10 0.12 0.14 0.15 0.16 0.18 0.20 0.21 0.21 0.21 0.21 0.21
0.00 0.00 0.00 0.00 0.00 0.00 0.00 0.00 0.00 0.01 0.01 0.01 0.01 0.01 0.00 0.00 0.00 0.01 0.01 0.02 0.03 0.03 0.03 0.04 0.04 0.04 0.05 0.06 0.07 0.08 0.10 0.11 0.14 0.15 0.16 0.17 0.18 0.20 0.20 0.20 0.21 0.22 0.21
0.00 0.00 0.00 0.00 0.00 0.00 0.00 0.00 0.00 0.01 0.01 0.01 0.01 0.01 0.00 0.01 0.01 0.02 0.03 0.03 0.03 0.03 0.03 0.04 0.04 0.05 0.06 0.07 0.08 0.09 0.11 0.14 0.15 0.16 0.17 0.17 0.18 0.18 0.19 0.20 0.21 0.21 0.21
0.00 0.00 0.00 0.00 0.00 0.00 0.00 0.00 0.01 0.01 0.01 0.01 0.01 0.01 0.01 0.01 0.02 0.03 0.03 0.03 0.03 0.03 0.03 0.04 0.05 0.06 0.08 0.09 0.10 0.12 0.13 0.15 0.17 0.19 0.21 0.21 0.20 0.19 0.18 0.18 0.18 0.19 0.19
0.00 0.00 0.00 0.00 0.00 0.00 0.01 0.01 0.01 0.01 0.01 0.01 0.01 0.01 0.01 0.02 0.02 0.02 0.02 0.02 0.02 0.03 0.04 0.06 0.07 0.08 0.09 0.10 0.12 0.15 0.17 0.18 0.18 0.19 0.19 0.19 0.19 0.19 0.18 0.17 0.17 0.17 0.16
0.00 0.00 0.00 0.00 0.00 0.00 0.00 0.00 0.00 0.00 0.01 0.01 0.01 0.01 0.01 0.02 0.02 0.02 0.02 0.02 0.02 0.03 0.04 0.05 0.07 0.08 0.10 0.11 0.13 0.15 0.17 0.16 0.14 0.12 0.13 0.14 0.14 0.15 0.16 0.15 0.15 0.15 0.13
0.00 0.00 0.00 0.00 0.00 0.00 0.00 0.00 0.00 0.01 0.01 0.01 0.01 0.01 0.01 0.01 0.02 0.02 0.02 0.02 0.02 0.02 0.03 0.04 0.04 0.05 0.06 0.07 0.08 0.09 0.10 0.09 0.08 0.08 0.08 0.08 0.08 0.08 0.08 0.09 0.10 0.11 0.11
0.00 0.00 0.00 0.00 0.00 0.00 0.00 0.01 0.01 0.01 0.01 0.01 0.01 0.01 0.01 0.01 0.02 0.02 0.02 0.02 0.02 0.02 0.02 0.03 0.03 0.03 0.04 0.05 0.05 0.05 0.04 0.04 0.05 0.05 0.05 0.04 0.04 0.04 0.05 0.05 0.06 0.06 0.06
MSLP
1013.04 1013.45 1013.88 1014.27 1014.59 1014.81 1014.96 1015.05 1015.13 1015.23 1015.40 1015.65 1015.98 1016.38 1016.80 1017.23 1017.61 1017.93 1018.17 1018.34 1018.45 1018.51 1018.56 1018.60 1018.65 1018.71 1018.76 1018.81 1018.84 1018.84 1018.82 1018.76 1018.68 1018.58 1018.48 1018.37 1018.27 1018.18 1018.11 1018.07 1018.05 1018.07 1018.12
1012.31 1012.71 1013.12 1013.50 1013.81 1014.05 1014.23 1014.37 1014.50 1014.66 1014.88 1015.16 1015.52 1015.92 1016.34 1016.76 1017.14 1017.46 1017.71 1017.89 1018.01 1018.09 1018.14 1018.19 1018.23 1018.28 1018.33 1018.37 1018.40 1018.41 1018.40 1018.37 1018.32 1018.25 1018.17 1018.07 1017.97 1017.87 1017.77 1017.68 1017.61 1017.56 1017.56
1011.57 1011.98 1012.37 1012.73 1013.04 1013.30 1013.50 1013.69 1013.87 1014.08 1014.34 1014.66 1015.02 1015.43 1015.84 1016.23 1016.58 1016.88 1017.12 1017.29 1017.42 1017.50 1017.57 1017.62 1017.67 1017.72 1017.77 1017.82 1017.86 1017.88 1017.89 1017.89 1017.87 1017.84 1017.78 1017.71 1017.62 1017.52 1017.40 1017.28 1017.17 1017.07 1017.00
1010.99 1011.40 1011.78 1012.12 1012.42 1012.67 1012.88 1013.09 1013.31 1013.56 1013.85 1014.18 1014.55 1014.94 1015.32 1015.67 1015.98 1016.24 1016.45 1016.60 1016.72 1016.80 1016.87 1016.94 1017.00 1017.06 1017.12 1017.17 1017.22 1017.26 1017.30 1017.32 1017.33 1017.33 1017.31 1017.27 1017.21 1017.12 1017.01 1016.88 1016.74 1016.60 1016.48
1010.70 1011.12 1011.48 1011.79 1012.04 1012.26 1012.47 1012.67 1012.90 1013.16 1013.46 1013.80 1014.15 1014.51 1014.85 1015.15 1015.40 1015.60 1015.76 1015.88 1015.97 1016.05 1016.12 1016.20 1016.27 1016.34 1016.41 1016.47 1016.53 1016.58 1016.62 1016.67 1016.70 1016.73 1016.75 1016.75 1016.72 1016.66 1016.57 1016.45 1016.30 1016.14 1015.98
1010.81 1011.21 1011.54 1011.80 1012.00 1012.16 1012.32 1012.49 1012.70 1012.95 1013.24 1013.56 1013.88 1014.19 1014.47 1014.71 1014.90 1015.04 1015.15 1015.22 1015.29 1015.35 1015.41 1015.48 1015.55 1015.63 1015.70 1015.76 1015.82 1015.87 1015.91 1015.96 1016.01 1016.05 1016.10 1016.12 1016.13 1016.11 1016.05 1015.96 1015.83 1015.67 1015.49
1011.32 1011.70 1011.98 1012.17 1012.29 1012.38 1012.47 1012.59 1012.75 1012.96 1013.21 1013.49 1013.78 1014.04 1014.27 1014.45 1014.57 1014.65 1014.70 1014.73 1014.75 1014.79 1014.83 1014.89 1014.95 1015.01 1015.07 1015.12 1015.15 1015.18 1015.20 1015.23 1015.26 1015.31 1015.35 1015.40 1015.43 1015.45 1015.42 1015.36 1015.26 1015.12 1014.95
1012.18 1012.52 1012.73 1012.84 1012.88 1012.88 1012.89 1012.93 1013.03 1013.19 1013.40 1013.63 1013.88 1014.10 1014.27 1014.40 1014.48 1014.51 1014.50 1014.49 1014.47 1014.47 1014.48 1014.51 1014.54 1014.57 1014.59 1014.60 1014.58 1014.56 1014.53 1014.51 1014.50 1014.51 1014.54 1014.58 1014.62 1014.65 1014.66 1014.63 1014.56 1014.46 1014.31
1013.25 1013.54 1013.68 1013.71 1013.66 1013.58 1013.50 1013.47 1013.50 1013.60 1013.77 1013.96 1014.17 1014.36 1014.50 1014.60 1014.64 1014.63 1014.59 1014.53 1014.48 1014.43 1014.40 1014.38 1014.36 1014.34 1014.30 1014.23 1014.15 1014.05 1013.94 1013.84 1013.76 1013.70 1013.67 1013.67 1013.69 1013.72 1013.74 1013.74 1013.70 1013.64 1013.52
1014.36 1014.59 1014.67 1014.63 1014.51 1014.35 1014.20 1014.11 1014.08 1014.14 1014.26 1014.43 1014.62 1014.79 1014.92 1015.00 1015.02 1015.00 1014.93 1014.85 1014.75 1014.66 1014.57 1014.49 1014.40 1014.30 1014.17 1014.02 1013.84 1013.63 1013.42 1013.22 1013.03 1012.88 1012.77 1012.71 1012.68 1012.67 1012.68 1012.69 1012.68 1012.65 1012.58
1015.35 1015.53 1015.56 1015.47 1015.29 1015.08 1014.88 1014.74 1014.68 1014.70 1014.81 1014.96 1015.14 1015.32 1015.45 1015.54 1015.56 1015.53 1015.45 1015.34 1015.21 1015.07 1014.92 1014.76 1014.59 1014.39 1014.16 1013.90 1013.61 1013.29 1012.96 1012.64 1012.34 1012.07 1011.86 1011.70 1011.60 1011.54 1011.52 1011.52 1011.52 1011.51 1011.48
1016.11 1016.25 1016.24 1016.11 1015.90 1015.65 1015.43 1015.27 1015.19 1015.21 1015.31 1015.47 1015.66 1015.85 1016.00 1016.10 1016.14 1016.12 1016.03 1015.90 1015.73 1015.53 1015.31 1015.07 1014.81 1014.51 1014.18 1013.81 1013.40 1012.96 1012.51 1012.07 1011.65 1011.27 1010.94 1010.68 1010.49 1010.36 1010.29 1010.25 1010.25 1010.25 1010.26
1016.58 1016.67 1016.64 1016.49 1016.26 1016.01 1015.79 1015.62 1015.55 1015.57 1015.68 1015.85 1016.07 1016.28 1016.46 1016.59 1016.64 1016.63 1016.53 1016.38 1016.17 1015.92 1015.63 1015.31 1014.95 1014.55 1014.12 1013.64 1013.13 1012.59 1012.04 1011.48 1010.95 1010.46 1010.03 1009.67 1009.38 1009.17 1009.03 1008.96 1008.93 1008.94 1008.97
1016.75 1016.81 1016.75 1016.59 1016.37 1016.13 1015.92 1015.77 1015.71 1015.75 1015.88 1016.07 1016.31 1016.55 1016.75 1016.90 1016.97 1016.96 1016.86 1016.68 1016.43 1016.12 1015.76 1015.36 1014.92 1014.44 1013.92 1013.36 1012.76 1012.14 1011.50 1010.86 1010.24 1009.66 1009.13 1008.68 1008.30 1008.01 1007.80 1007.67 1007.61 1007.61 1007.65
1016.69 1016.71 1016.63 1016.47 1016.25 1016.03 1015.84 1015.72 1015.69 1015.75 1015.90 1016.12 1016.37 1016.62 1016.84 1017.00 1017.08 1017.06 1016.94 1016.73 1016.44 1016.08 1015.66 1015.19 1014.68 1014.13 1013.55 1012.93 1012.28 1011.60 1010.91 1010.21 1009.53 1008.88 1008.28 1007.74 1007.29 1006.92 1006.64 1006.46 1006.36 1006.34 1006.37
1016.50 1016.47 1016.37 1016.20 1015.99 1015.79 1015.63 1015.54 1015.54 1015.62 1015.79 1016.03 1016.29 1016.55 1016.77 1016.92 1016.99 1016.95 1016.80 1016.56 1016.22 1015.81 1015.34 1014.82 1014.26 1013.67 1013.05 1012.40 1011.72 1011.02 1010.30 1009.58 1008.86 1008.16 1007.50 1006.90 1006.38 1005.94 1005.60 1005.36 1005.22 1005.16 1005.18
1016.27 1016.20 1016.07 1015.89 1015.70 1015.53 1015.40 1015.34 1015.36 1015.47 1015.66 1015.90 1016.16 1016.41 1016.61 1016.74 1016.78 1016.71 1016.53 1016.25 1015.87 1015.42 1014.91 1014.35 1013.76 1013.15 1012.51 1011.86 1011.18 1010.47 1009.75 1009.01 1008.27 1007.54 1006.84 1006.19 1005.60 1005.10 1004.70 1004.40 1004.21 1004.11 1004.11
1016.11 1016.00 1015.84 1015.66 1015.49 1015.34 1015.24 1015.22 1015.27 1015.40 1015.60 1015.83 1016.08 1016.31 1016.48 1016.57 1016.56 1016.45 1016.23 1015.90 1015.49 1015.00 1014.46 1013.89 1013.30 1012.68 1012.05 1011.41 1010.74 1010.05 1009.33 1008.59 1007.84 1007.08 1006.34 1005.64 1005.00 1004.43 1003.97 1003.61 1003.37 1003.23 1003.20
1016.08 1015.93 1015.77 1015.59 1015.44 1015.33 1015.27 1015.28 1015.36 1015.51 1015.70 1015.93 1016.15 1016.33 1016.46 1016.50 1016.44 1016.27 1016.00 1015.63 1015.18 1014.67 1014.12 1013.55 1012.96 1012.36 1011.75 1011.13 1010.48 1009.81 1009.10 1008.36 1007.59 1006.81 1006.03 1005.28 1004.57 1003.95 1003.42 1003.00 1002.70 1002.53 1002.46
1016.22 1016.06 1015.89 1015.74 1015.62 1015.54 1015.52 1015.56 1015.67 1015.83 1016.02 1016.22 1016.40 1016.54 1016.60 1016.58 1016.46 1016.23 1015.91 1015.50 1015.02 1014.50 1013.95 1013.38 1012.81 1012.23 1011.65 1011.05 1010.43 1009.77 1009.07 1008.33 1007.54 1006.73 1005.90 1005.10 1004.34 1003.65 1003.06 1002.59 1002.24 1002.01 1001.91
1016.54 1016.38 1016.23 1016.10 1016.01 1015.97 1015.99 1016.07 1016.19 1016.35 1016.53 1016.70 1016.83 1016.91 1016.90 1016.81 1016.62 1016.33 1015.95 1015.50 1015.01 1014.47 1013.93 1013.38 1012.83 1012.28 1011.73 1011.16 1010.56 1009.91 1009.21 1008.46 1007.65 1006.80 1005.94 1005.08 1004.27 1003.53 1002.89 1002.36 1001.97 1001.70 1001.56
1017.00 1016.86 1016.74 1016.64 1016.59 1016.59 1016.63 1016.73 1016.86 1017.01 1017.16 1017.29 1017.36 1017.37 1017.29 1017.12 1016.85 1016.50 1016.08 1015.60 1015.08 1014.55 1014.01 1013.48 1012.96 1012.44 1011.92 1011.37 1010.79 1010.15 1009.45 1008.68 1007.85 1006.98 1006.08 1005.19 1004.34 1003.56 1002.88 1002.31 1001.88 1001.58 1001.41
1017.56 1017.45 1017.35 1017.28 1017.26 1017.28 1017.35 1017.45 1017.57 1017.70 1017.80 1017.87 1017.88 1017.81 1017.65 1017.41 1017.08 1016.67 1016.20 1015.69 1015.16 1014.63 1014.11 1013.59 1013.10 1012.60 1012.10 1011.58 1011.01 1010.38 1009.68 1008.91 1008.08 1007.19 1006.28 1005.37 1004.51 1003.71 1003.01 1002.42 1001.96 1001.64 1001.43
1018.15 1018.06 1017.98 1017.93 1017.93 1017.96 1018.02 1018.11 1018.20 1018.29 1018.34 1018.34 1018.28 1018.13 1017.90 1017.58 1017.19 1016.74 1016.23 1015.71 1015.17 1014.64 1014.13 1013.63 1013.16 1012.68 1012.20 1011.69 1011.13 1010.51 1009.82 1009.06 1008.24 1007.36 1006.46 1005.57 1004.71 1003.92 1003.22 1002.64 1002.17 1001.83 1001.59
1018.69 1018.62 1018.55 1018.51 1018.50 1018.52 1018.56 1018.62 1018.67 1018.70 1018.69 1018.62 1018.49 1018.27 1017.97 1017.59 1017.15 1016.66 1016.14 1015.60 1015.06 1014.54 1014.04 1013.55 1013.09 1012.63 1012.16 1011.66 1011.11 1010.50 1009.83 1009.09 1008.29 1007.45 1006.58 1005.73 1004.91 1004.15 1003.48 1002.91 1002.45 1002.09 1001.82
1019.14 1019.07 1019.00 1018.95 1018.92 1018.92 1018.92 1018.93 1018.93 1018.90 1018.83 1018.70 1018.49 1018.22 1017.87 1017.45 1016.98 1016.47 1015.94 1015.39 1014.86 1014.34 1013.85 1013.37 1012.91 1012.46 1011.99 1011.49 1010.95 1010.35 1009.70 1008.99 1008.23 1007.43 1006.62 1005.82 1005.06 1004.35 1003.72 1003.18 1002.72 1002.35 1002.05
Thickness
5740 5739 5739 5737 5737 5736 5734 5734 5734 5734 5733 5731 5728 5726 5723 5721 5719 5716 5713 5713 5711 5709 5708 5707 5705 5704 5702 5703 5703 5701 5699 5696 5690 5693 5698 5700 5699 5697 5695 5693 5691 5690 5689
5743 5741 5739 5739 5737 5735 5734 5734 5734 5732 5731 5729 5727 5724 5722 5720 5718 5714 5711 5710 5709 5707 5705 5704 5702 5701 5699 5697 5696 5695 5695 5694 5690 5687 5689 5692 5693 5693 5692 5690 5689 5688 5688
5746 5743 5740 5738 5736 5735 5735 5734 5733 5731 5729 5727 5725 5722 5720 5718 5716 5713 5710 5708 5707 5705 5704 5702 5700 5698 5695 5694 5693 5691 5690 5690 5689 5685 5685 5687 5688 5689 5688 5687 5686 5685 5685
5749 5744 5740 5738 5737 5736 5734 5733 5731 5729 5726 5724 5723 5721 5719 5716 5714 5712 5709 5706 5705 5703 5702 5701 5698 5696 5694 5691 5689 5687 5685 5683 5683 5681 5681 5681 5682 5684 5683 5681 5680 5681 5681
5749 5743 5741 5739 5737 5735 5732 5730 5728 5726 5724 5722 5720 5718 5716 5713 5712 5709 5706 5705 5702 5700 5699 5698 5696 5695 5693 5690 5687 5685 5682 5679 5677 5676 5676 5676 5677 5676 5676 5677 5675 5676 5678
5746 5742 5740 5736 5733 5730 5728 5726 5724 5722 5719 5718 5715 5713 5711 5710 5709 5705 5703 5700 5699 5697 5695 5694 5693 5691 5690 5687 5684 5682 5678 5674 5673 5671 5671 5671 5672 5673 5672 5671 5669 5667 5667
5738 5735 5732 5729 5725 5722 5721 5719 5716 5714 5712 5711 5709 5707 5704 5702 5699 5697 5694 5692 5691 5690 5689 5687 5686 5688 5686 5684 5681 5677 5675 5672 5669 5666 5665 5666 5666 5666 5664 5663 5662 5660 5661
5727 5724 5723 5721 5716 5713 5711 5709 5707 5705 5702 5700 5699 5697 5695 5694 5690 5688 5685 5682 5681 5681 5680 5679 5677 5677 5677 5674 5673 5672 5671 5670 5667 5663 5660 5662 5661 5660 5657 5655 5654 5655 5657
5711 5708 5707 5706 5704 5701 5699 5697 5696 5694 5692 5690 5689 5687 5685 5683 5680 5677 5673 5672 5671 5670 5670 5670 5668 5667 5666 5663 5661 5661 5661 5663 5664 5662 5660 5659 5657 5654 5650 5646 5645 5643 5645
5696 5692 5690 5689 5687 5685 5684 5684 5682 5681 5680 5678 5676 5675 5674 5671 5669 5665 5661 5660 5658 5657 5657 5657 5656 5653 5651 5649 5647 5648 5648 5651 5651 5651 5650 5650 5649 5647 5644 5639 5637 5634 5636
5682 5679 5675 5674 5673 5671 5670 5669 5668 5668 5666 5665 5663 5663 5662 5660 5656 5652 5648 5646 5644 5642 5642 5642 5642 5638 5636 5634 5632 5632 5634 5635 5636 5637 5639 5640 5640 5639 5639 5637 5634 5630 5629
5668 5665 5662 5661 5661 5660 5657 5656 5656 5655 5653 5652 5651 5649 5649 5647 5642 5637 5633 5629 5626 5624 5624 5625 5625 5622 5620 5619 5619 5621 5620 5619 5621 5624 5626 5628 5628 5630 5631 5630 5630 5628 5627
5654 5652 5651 5649 5648 5646 5645 5644 5644 5642 5640 5638 5636 5633 5631 5630 5626 5621 5616 5613 5610 5608 5608 5608 5606 5604 5603 5606 5608 5607 5605 5605 5606 5608 5611 5614 5616 5618 5618 5618 5619 5619 5619
5641 5640 5639 5638 5637 5635 5633 5633 5631 5629 5625 5621 5618 5615 5614 5611 5607 5602 5598 5596 5593 5592 5591 5590 5588 5589 5589 5591 5593 5594 5593 5592 5592 5593 5596 5599 5601 5601 5602 5603 5603 5605 5604
5629 5628 5628 5628 5627 5625 5623 5622 5620 5618 5614 5608 5605 5601 5598 5594 5587 5580 5577 5576 5573 5570 5567 5568 5571 5573 5575 5576 5576 5577 5576 5576 5575 5576 5577 5579 5581 5583 5585 5586 5587 5588 5589
5616 5616 5616 5616 5615 5614 5612 5611 5609 5606 5602 5598 5593 5587 5582 5575 5570 5565 5560 5556 5553 5548 5545 5549 5551 5551 5552 5552 5552 5553 5553 5553 5553 5554 5556 5558 5561 5563 5566 5569 5569 5571 5574
5603 5602 5603 5602 5601 5600 5599 5597 5594 5592 5587 5582 5576 5570 5564 5558 5553 5548 5543 5539 5535 5530 5529 5531 5530 5529 5528 5528 5528 5528 5530 5531 5531 5532 5535 5538 5541 5545 5548 5552 5554 5556 5560
5593 5592 5590 5588 5587 5586 5584 5582 5579 5575 5571 5566 5559 5552 5546 5539 5534 5529 5525 5520 5521 5519 5515 5513 5510 5509 5508 5507 5507 5507 5509 5510 5512 5513 5517 5520 5524 5527 5532 5538 5541 5544 5549
5581 5580 5577 5575 5573 5572 5569 5566 5562 5557 5552 5547 5541 5534 5526 5520 5515 5511 5506 5502 5500 5499 5496 5493 5491 5490 5489 5488 5488 5489 5491 5493 5495 5498 5501 5505 5510 5514 5519 5525 5530 5534 5537
5568 5565 5563 5561 5559 5557 5553 5547 5542 5537 5532 5526 5519 5513 5507 5502 5499 5495 5489 5485 5482 5480 5478 5476 5475 5473 5473 5473 5474 5475 5478 5480 5483 5486 5490 5494 5499 5504 5509 5515 5520 5525 5529
5555 5553 5549 5546 5543 5537 5532 5527 5522 5516 5510 5504 5498 5492 5484 5483 5481 5477 5474 5470 5467 5465 5463 5462 5461 5461 5462 5462 5463 5465 5467 5470 5472 5476 5480 5486 5491 5496 5502 5507 5513 5518 5522
5540 5537 5533 5529 5524 5518 5511 5507 5502 5496 5491 5485 5481 5476 5470 5468 5465 5462 5459 5456 5454 5453 5451 5451 5451 5452 5452 5453 5454 5456 5459 5462 5465 5468 5472 5477 5484 5490 5496 5502 5507 5512 5517
5525 5521 5516 5511 5506 5499 5495 5490 5484 5478 5473 5468 5464 5461 5458 5454 5451 5448 5446 5445 5443 5443 5442 5443 5443 5445 5446 5447 5448 5449 5451 5454 5456 5459 5465 5471 5478 5485 5491 5498 5504 5510 5514
5509 5504 5499 5493 5488 5483 5477 5473 5468 5463 5458 5454 5451 5448 5445 5442 5440 5438 5436 5436 5435 5435 5435 5436 5438 5440 5442 5444 5446 5447 5448 5450 5452 5456 5461 5467 5474 5481 5488 5496 5502 5508 5512
5493 5487 5482 5477 5472 5467 5462 5458 5454 5449 5446 5443 5441 5438 5436 5434 5432 5431 5430 5429 5429 5430 5431 5433 5435 5437 5439 5441 5444 5446 5447 5449 5452 5455 5460 5466 5473 5480 5487 5493 5499 5503 5507
5477 5471 5466 5462 5458 5453 5450 5446 5442 5439 5436 5434 5432 5430 5428 5426 5425 5425 5424 5424 5425 5427 5428 5430 5432 5434 5437 5439 5441 5444 5447 5450 5453 5456 5459 5466 5472 5479 5484 5490 5495 5499 5503